KA3RQR Weather Reports


Display with metric or nautical units.
time (UTC)temp
F
wind
direction
speed
MPH
gust
MPH
rain 1hr
in
rain 24hr
in
rain mn
in
humidity
%
barometer
mb
20260505140416 70 210 5.0 6.0 0.00 0.00 0.00 54 1012.8
20260505124829 65 168 0.0 1.0 0.00 0.00 0.00 59 1012.9
20260505124326 64 289 4.0 5.0 0.00 0.00 0.00 59 1012.8
20260505123822 64 177 1.0 1.0 0.00 0.00 0.00 60 1012.9
20260505123319 64 220 2.0 2.0 0.00 0.00 0.00 59 1013.1
20260505122815 63 226 2.0 3.0 0.00 0.00 0.00 60 1013.0
20260505122313 63 229 3.0 3.0 0.00 0.00 0.00 60 1012.8
20260505121809 63 178 1.0 2.0 0.00 0.00 0.00 60 1013.0
20260505121306 62 228 2.0 2.0 0.00 0.00 0.00 61 1012.9
20260505120802 62 175 0.0 0.0 0.00 0.00 0.00 61 1013.1
20260505120259 62 153 1.0 2.0 0.00 0.00 0.00 62 1012.9
20260505115757 62 107 1.0 1.0 0.00 0.00 0.00 62 1012.8
20260505115255 62 174 3.0 3.0 0.00 0.00 0.00 62 1012.8
20260505114752 61 178 1.0 1.0 0.00 0.00 0.00 62 1012.4
20260505114248 61 99 1.0 2.0 0.00 0.00 0.00 63 1012.5
20260505113745 61 180 0.0 1.0 0.00 0.00 0.00 64 1012.4
20260505113241 60 167 0.0 0.0 0.00 0.00 0.00 65 1012.5
20260505112737 60 190 1.0 2.0 0.00 0.00 0.00 64 1012.5
20260505112235 60 252 2.0 3.0 0.00 0.00 0.00 64 1012.3
20260505111735 60 190 1.0 1.0 0.00 0.00 0.00 64 1012.3
20260505111231 60 213 1.0 2.0 0.00 0.00 0.00 64 1012.3
20260505110727 60 172 0.0 1.0 0.00 0.00 0.00 63 1012.2
20260505110225 60 152 4.0 7.0 0.00 0.00 0.00 63 1012.3
20260505102200 60 180 0.0 1.0 0.00 0.00 0.00 64 1011.9
20260505101659 60 146 1.0 1.0 0.00 0.00 0.00 64 1011.9
20260505101155 60 172 1.0 2.0 0.00 0.00 0.00 64 1011.9
20260505100651 60 187 1.0 1.0 0.00 0.00 0.00 64 1011.8
20260505100149 60 260 3.0 3.0 0.00 0.00 0.00 64 1011.8
20260505095644 60 175 0.0 0.0 0.00 0.00 0.00 64 1011.6
20260505095142 60 139 3.0 3.0 0.00 0.00 0.00 64 1011.6
20260505094637 60 158 1.0 1.0 0.00 0.00 0.00 64 1011.9
20260505094134 60 168 0.0 0.0 0.00 0.00 0.00 64 1011.8
20260505093630 60 171 0.0 0.0 0.00 0.00 0.00 64 1011.8
20260505093128 60 181 1.0 1.0 0.00 0.00 0.00 63 1011.6
20260505092625 60 168 0.0 0.0 0.00 0.00 0.00 64 1011.8
20260505092124 60 165 0.0 0.0 0.00 0.00 0.00 63 1011.7
20260505091620 60 182 0.0 1.0 0.00 0.00 0.00 63 1011.6
20260505091118 61 212 2.0 2.0 0.00 0.00 0.00 63 1011.5
20260505090615 61 241 3.0 3.0 0.00 0.00 0.00 62 1011.5
20260505090114 60 195 0.0 1.0 0.00 0.00 0.00 63 1011.2
20260505085610 60 174 0.0 0.0 0.00 0.00 0.00 64 1011.4
20260505085109 60 176 0.0 1.0 0.00 0.00 0.00 63 1011.4
20260505084606 60 211 4.0 5.0 0.00 0.00 0.00 64 1011.4
20260505084105 60 174 0.0 0.0 0.00 0.00 0.00 65 1011.3
20260505083602 60 179 1.0 1.0 0.00 0.00 0.00 65 1011.4
20260505083058 60 194 1.0 1.0 0.00 0.00 0.00 67 1011.6
20260505082554 59 165 0.0 0.0 0.00 0.00 0.00 68 1011.6
20260505082051 59 157 1.0 1.0 0.00 0.00 0.00 68 1011.4
20260505081547 59 164 0.0 0.0 0.00 0.00 0.00 68 1011.5
20260505081044 60 168 0.0 0.0 0.00 0.00 0.00 68 1011.4
20260505080540 60 149 0.0 1.0 0.00 0.00 0.00 67 1011.4
20260505080038 60 158 1.0 1.0 0.00 0.00 0.00 67 1011.3
20260505075533 60 167 0.0 0.0 0.00 0.00 0.00 67 1011.4
20260505075030 60 143 0.0 1.0 0.00 0.00 0.00 67 1011.2
20260505074527 59 155 2.0 3.0 0.00 0.00 0.00 68 1011.3
20260505074025 59 176 0.0 0.0 0.00 0.00 0.00 69 1011.3
20260505073522 59 167 0.0 0.0 0.00 0.00 0.00 69 1011.2
20260505073020 59 162 1.0 2.0 0.00 0.00 0.00 69 1011.2
20260505072515 60 166 1.0 1.0 0.00 0.00 0.00 68 1011.4
20260505072012 59 158 1.0 1.0 0.00 0.00 0.00 70 1011.2
20260505071508 59 160 0.0 1.0 0.00 0.00 0.00 71 1011.1
20260505071006 59 160 1.0 1.0 0.00 0.00 0.00 70 1011.1
20260505070503 60 165 0.0 0.0 0.00 0.00 0.00 69 1011.3
20260505065958 60 166 0.0 0.0 0.00 0.00 0.00 68 1011.2
20260505065455 61 173 0.0 0.0 0.00 0.00 0.00 66 1011.0
20260505064951 61 158 1.0 1.0 0.00 0.00 0.00 66 1011.3
20260505064448 62 156 0.0 1.0 0.00 0.00 0.00 65 1011.2
20260505063947 61 165 0.0 0.0 0.00 0.00 0.00 66 1011.3
20260505063443 61 168 0.0 0.0 0.00 0.00 0.00 66 1011.2
20260505062940 61 173 0.0 0.0 0.00 0.00 0.00 66 1011.1
20260505062437 61 178 1.0 1.0 0.00 0.00 0.00 66 1010.9
20260505061933 60 152 1.0 1.0 0.00 0.00 0.00 67 1010.9
20260505061432 61 171 0.0 0.0 0.00 0.00 0.00 68 1011.1
20260505060929 61 156 0.0 1.0 0.00 0.00 0.00 66 1011.0
20260505060426 61 172 0.0 0.0 0.00 0.00 0.00 66 1011.1
20260505055922 61 169 0.0 0.0 0.00 0.00 0.00 67 1011.2
20260505055418 60 147 1.0 2.0 0.00 0.00 0.00 69 1011.3
20260505054915 59 163 1.0 1.0 0.00 0.00 0.00 70 1011.1
20260505054412 59 166 0.0 0.0 0.00 0.00 0.00 73 1011.2
20260505053910 59 166 0.0 0.0 0.00 0.00 0.00 72 1011.3
20260505053407 59 169 0.0 0.0 0.00 0.00 0.00 73 1011.2
20260505052904 59 169 0.0 0.0 0.00 0.00 0.00 72 1011.1
20260505052401 60 169 0.0 0.0 0.00 0.00 0.00 71 1011.1
20260505051858 60 169 0.0 0.0 0.00 0.00 0.00 70 1011.0
20260505051355 60 167 0.0 0.0 0.00 0.00 0.00 70 1011.1
20260505050853 60 167 0.0 0.0 0.00 0.00 0.00 70 1011.1
20260505050352 61 167 0.0 0.0 0.00 0.00 0.00 69 1011.0
20260505041319 64 253 1.0 2.0 0.00 0.00 0.00 61 1011.4
20260505040816 64 164 0.0 0.0 0.00 0.00 0.00 61 1011.3
20260505040314 64 188 1.0 1.0 0.00 0.00 0.00 60 1011.3
20260505035810 64 193 2.0 2.0 0.00 0.00 0.00 60 1011.3
20260505035306 64 178 0.0 0.0 0.00 0.00 0.00 60 1011.3
20260505034803 64 181 0.0 1.0 0.00 0.00 0.00 59 1011.3
20260505034300 64 186 1.0 1.0 0.00 0.00 0.00 60 1011.2
20260505033756 64 125 0.0 1.0 0.00 0.00 0.00 59 1011.3
20260505033254 65 159 0.0 0.0 0.00 0.00 0.00 59 1011.5
20260505032752 64 196 1.0 1.0 0.00 0.00 0.00 59 1011.4
20260505032248 64 262 2.0 2.0 0.00 0.00 0.00 59 1011.4
20260505031745 65 172 0.0 0.0 0.00 0.00 0.00 58 1011.2
20260505031241 65 175 0.0 1.0 0.00 0.00 0.00 58 1011.4
20260505030738 65 155 1.0 1.0 0.00 0.00 0.00 57 1011.3
20260505030234 65 160 0.0 0.0 0.00 0.00 0.00 57 1011.1
20260505025730 66 160 1.0 1.0 0.00 0.00 0.00 55 1011.1
20260505025229 65 224 2.0 2.0 0.00 0.00 0.00 55 1011.2
20260505024727 65 181 0.0 0.0 0.00 0.00 0.00 55 1011.0
20260505024224 66 168 1.0 1.0 0.00 0.00 0.00 54 1010.9
20260505023721 66 178 0.0 0.0 0.00 0.00 0.00 54 1011.3
20260505023218 67 185 1.0 1.0 0.00 0.00 0.00 53 1011.1
20260505022715 67 182 1.0 1.0 0.00 0.00 0.00 53 1011.1
20260505022212 67 163 0.0 1.0 0.00 0.00 0.00 53 1011.2
20260505021709 67 188 1.0 1.0 0.00 0.00 0.00 52 1011.0
20260505021206 68 160 1.0 1.0 0.00 0.00 0.00 51 1011.0
20260505020701 68 156 1.0 2.0 0.00 0.00 0.00 51 1011.0
20260505020157 68 235 2.0 3.0 0.00 0.00 0.00 50 1011.1
20260505015655 68 173 3.0 5.0 0.00 0.00 0.00 50 1010.9
20260505015151 68 146 1.0 2.0 0.00 0.00 0.00 50 1010.7
20260505014648 68 229 2.0 2.0 0.00 0.00 0.00 51 1010.9
20260505014145 67 196 2.0 3.0 0.00 0.00 0.00 51 1010.8
20260505013642 67 165 0.0 0.0 0.00 0.00 0.00 50 1011.1
20260505013139 68 174 0.0 0.0 0.00 0.00 0.00 52 1010.5
20260505012638 68 166 0.0 0.0 0.00 0.00 0.00 50 1010.7
20260505012134 68 160 1.0 1.0 0.00 0.00 0.00 49 1010.5
20260505011630 68 163 0.0 0.0 0.00 0.00 0.00 50 1010.5
20260505011127 69 161 1.0 1.0 0.00 0.00 0.00 48 1010.3
20260505010622 69 166 0.0 0.0 0.00 0.00 0.00 49 1010.4
20260505010119 69 163 0.0 0.0 0.00 0.00 0.00 50 1010.2
20260505005615 69 164 0.0 1.0 0.00 0.00 0.00 50 1010.1
20260505005113 69 181 0.0 1.0 0.00 0.00 0.00 49 1010.4
20260505004610 69 163 0.0 1.0 0.00 0.00 0.00 48 1010.5
20260505004107 69 162 0.0 0.0 0.00 0.00 0.00 49 1010.2
20260505003603 69 163 0.0 0.0 0.00 0.00 0.00 49 1010.4
20260505003101 69 155 1.0 1.0 0.00 0.00 0.00 48 1010.1
20260505002556 69 171 0.0 0.0 0.00 0.00 0.00 47 1010.1
20260505002055 70 161 0.0 0.0 0.00 0.00 0.00 47 1010.2
20260505001552 71 154 1.0 2.0 0.00 0.00 0.00 45 1010.2
20260505001049 70 153 1.0 1.0 0.00 0.00 0.00 46 1010.2
20260505000546 71 161 0.0 1.0 0.00 0.00 0.00 45 1010.0
20260505000044 71 165 1.0 2.0 0.00 0.00 0.00 44 1010.1
20260504235540 71 171 0.0 0.0 0.00 0.00 0.00 44 1010.1
20260504235038 72 165 0.0 1.0 0.00 0.00 0.00 43 1010.0
20260504234534 71 178 0.0 0.0 0.00 0.00 0.00 44 1010.0
20260504234031 72 182 1.0 2.0 0.00 0.00 0.00 43 1009.9
20260504233526 72 174 1.0 1.0 0.00 0.00 0.00 42 1010.0
20260504233023 73 196 1.0 1.0 0.00 0.00 0.00 43 1010.0
20260504232520 73 184 3.0 5.0 0.00 0.00 0.00 41 1010.0
20260504232018 73 132 1.0 2.0 0.00 0.00 0.00 41 1010.0
20260504231514 73 150 1.0 1.0 0.00 0.00 0.00 41 1009.7
20260504231011 73 139 4.0 6.0 0.00 0.00 0.00 41 1010.0
20260504230507 73 138 7.0 9.0 0.00 0.00 0.00 40 1009.9
20260504230006 74 254 3.0 6.0 0.00 0.00 0.00 40 1010.0
20260504225503 74 129 2.0 3.0 0.00 0.00 0.00 40 1009.7
20260504225000 75 32 1.0 2.0 0.00 0.00 0.00 40 1009.9
20260504224456 75 169 0.0 1.0 0.00 0.00 0.00 40 1009.6
20260504223953 76 139 2.0 3.0 0.00 0.00 0.00 37 1009.8
20260504223450 76 188 0.0 0.0 0.00 0.00 0.00 39 1009.8
20260504222945 75 184 0.0 1.0 0.00 0.00 0.00 38 1009.9
20260504222443 76 103 3.0 3.0 0.00 0.00 0.00 37 1009.7
20260504221940 75 209 0.0 1.0 0.00 0.00 0.00 37 1009.9
20260504221437 76 140 5.0 7.0 0.00 0.00 0.00 36 1010.0
20260504220934 76 181 1.0 1.0 0.00 0.00 0.00 37 1009.9
20260504220431 76 235 3.0 5.0 0.00 0.00 0.00 36 1009.7
20260504215928 77 252 3.0 5.0 0.00 0.00 0.00 36 1009.7
20260504215425 77 110 3.0 5.0 0.00 0.00 0.00 35 1009.7
20260504214921 77 246 3.0 5.0 0.00 0.00 0.00 35 1009.6
20260504214418 77 130 3.0 3.0 0.00 0.00 0.00 35 1009.8
20260504213914 76 132 5.0 7.0 0.00 0.00 0.00 35 1009.7
20260504213410 76 187 5.0 6.0 0.00 0.00 0.00 36 1009.8
20260504212908 77 137 2.0 2.0 0.00 0.00 0.00 35 1010.0
20260504212403 76 168 2.0 2.0 0.00 0.00 0.00 36 1009.5
20260504211902 78 261 3.0 3.0 0.00 0.00 0.00 34 1009.7
20260504211358 77 163 1.0 1.0 0.00 0.00 0.00 35 1009.6
20260504210855 78 109 2.0 6.0 0.00 0.00 0.00 34 1009.6
20260504210352 77 206 3.0 3.0 0.00 0.00 0.00 35 1009.6
20260504205849 78 201 2.0 3.0 0.00 0.00 0.00 34 1009.6
20260504205347 78 218 4.0 6.0 0.00 0.00 0.00 34 1009.9
20260504204845 77 173 3.0 3.0 0.00 0.00 0.00 33 1009.7
20260504204343 78 131 3.0 6.0 0.00 0.00 0.00 35 1010.0
20260504203842 76 156 1.0 1.0 0.00 0.00 0.00 35 1009.8
20260504203338 76 130 3.0 6.0 0.00 0.00 0.00 34 1010.2
20260504202834 76 155 1.0 2.0 0.00 0.00 0.00 35 1010.2
20260504202332 76 155 1.0 1.0 0.00 0.00 0.00 37 1010.0
20260504201828 76 183 2.0 2.0 0.00 0.00 0.00 36 1010.2
20260504201326 77 295 3.0 5.0 0.00 0.00 0.00 35 1010.1
20260504200823 77 167 1.0 1.0 0.00 0.00 0.00 37 1010.2
20260504200319 78 178 1.0 1.0 0.00 0.00 0.00 34 1010.7
20260504195815 77 283 4.0 6.0 0.00 0.00 0.00 34 1010.5
20260504195311 77 189 2.0 3.0 0.00 0.00 0.00 34 1010.4
20260504194808 75 144 1.0 2.0 0.00 0.00 0.00 36 1010.8
20260504194305 76 167 1.0 1.0 0.00 0.00 0.00 35 1010.8
20260504193801 76 179 2.0 2.0 0.00 0.00 0.00 36 1010.7
20260504193258 76 176 1.0 1.0 0.00 0.00 0.00 36 1010.8
20260504192757 76 214 3.0 3.0 0.00 0.00 0.00 36 1011.0
20260504192255 76 200 1.0 1.0 0.00 0.00 0.00 40 1011.3
20260504191753 76 167 0.0 1.0 0.00 0.00 0.00 35 1011.1
20260504191250 75 149 4.0 6.0 0.00 0.00 0.00 35 1011.2
20260504190745 74 131 8.0 9.0 0.00 0.00 0.00 37 1011.3
20260504190242 74 205 3.0 5.0 0.00 0.00 0.00 38 1011.4
20260504185738 74 158 2.0 5.0 0.00 0.00 0.00 35 1011.7
20260504185235 75 212 1.0 2.0 0.00 0.00 0.00 37 1011.7
20260504184731 75 160 2.0 2.0 0.00 0.00 0.00 36 1011.6
20260504184227 74 207 1.0 2.0 0.00 0.00 0.00 41 1011.7
20260504183723 74 168 1.0 1.0 0.00 0.00 0.00 38 1011.8
20260504183220 73 199 3.0 3.0 0.00 0.00 0.00 36 1012.0
20260504182718 73 190 3.0 5.0 0.00 0.00 0.00 35 1012.2
20260504182215 72 205 2.0 3.0 0.00 0.00 0.00 38 1011.9
20260504181713 72 175 3.0 3.0 0.00 0.00 0.00 38 1012.4
20260504181210 73 142 3.0 5.0 0.00 0.00 0.00 36 1012.3
20260504180709 72 140 2.0 3.0 0.00 0.00 0.00 38 1012.2
20260504180207 72 224 6.0 8.0 0.00 0.00 0.00 38 1012.5
20260504175704 72 196 2.0 3.0 0.00 0.00 0.00 38 1012.4
20260504175201 72 244 4.0 6.0 0.00 0.00 0.00 37 1012.2
20260504174659 71 180 1.0 2.0 0.00 0.00 0.00 39 1012.4
20260504174156 71 183 0.0 0.0 0.00 0.00 0.00 39 1012.5
20260504173653 72 186 1.0 1.0 0.00 0.00 0.00 38 1012.7
20260504173150 71 334 3.0 5.0 0.00 0.00 0.00 42 1012.8
20260504172647 70 294 3.0 5.0 0.00 0.00 0.00 41 1012.7
20260504172143 70 146 6.0 7.0 0.00 0.00 0.00 39 1012.8
20260504171639 70 212 4.0 6.0 0.00 0.00 0.00 38 1012.8
20260504171137 69 175 1.0 2.0 0.00 0.00 0.00 40 1012.8
20260504170633 70 158 3.0 5.0 0.00 0.00 0.00 39 1013.1
20260504170131 70 204 3.0 3.0 0.00 0.00 0.00 40 1013.2
20260504151016 65 215 3.0 5.0 0.00 0.00 0.00 41 1014.5
20260504150514 65 197 2.0 2.0 0.00 0.00 0.00 44 1014.2